Temp
-13 -13 -13 -13 -13 -13 -13 -13 -13 -13 -13 -13 -13 -14 -14 -15 -15 -15 -16 -16 -16 -17 -17 -18 -18 -19 -19 -20 -20 -21 -22 -21 -21 -20 -21 -22 -21 -21 -20 -19 -20 -19 -19 -19
-13 -13 -13 -13 -13 -13 -13 -13 -13 -13 -13 -14 -14 -14 -14 -15 -15 -16 -16 -17 -17 -18 -18 -19 -19 -20 -20 -20 -21 -21 -21 -21 -21 -21 -21 -20 -21 -22 -21 -20 -20 -20 -20 -20
-14 -14 -14 -14 -14 -13 -13 -13 -13 -13 -13 -14 -14 -14 -14 -15 -16 -17 -17 -17 -18 -18 -19 -19 -20 -20 -21 -21 -22 -22 -22 -23 -24 -24 -23 -23 -22 -21 -23 -21 -21 -20 -20 -20
-14 -14 -14 -14 -14 -14 -13 -13 -13 -13 -14 -14 -14 -14 -15 -16 -16 -17 -18 -18 -18 -19 -19 -20 -20 -21 -22 -23 -23 -24 -25 -25 -25 -25 -25 -25 -24 -24 -24 -23 -22 -21 -21 -21
-14 -14 -14 -14 -14 -14 -14 -14 -14 -14 -14 -14 -14 -15 -16 -16 -17 -18 -18 -18 -19 -19 -20 -20 -21 -22 -23 -24 -25 -26 -26 -26 -26 -26 -25 -25 -26 -25 -26 -25 -24 -23 -22 -22
-15 -15 -14 -14 -14 -14 -14 -14 -14 -14 -14 -14 -15 -15 -16 -17 -18 -18 -19 -19 -20 -20 -20 -21 -22 -23 -24 -25 -26 -26 -26 -26 -27 -26 -26 -27 -28 -28 -28 -27 -26 -25 -23 -22
-15 -15 -15 -15 -14 -14 -14 -14 -14 -14 -14 -15 -15 -16 -17 -18 -18 -19 -19 -20 -20 -20 -21 -22 -23 -24 -25 -26 -26 -27 -27 -27 -27 -27 -27 -30 -30 -30 -30 -29 -28 -27 -26 -24
-15 -15 -15 -15 -15 -15 -15 -15 -15 -15 -15 -15 -15 -16 -17 -18 -19 -19 -20 -20 -21 -21 -22 -23 -24 -25 -26 -27 -27 -27 -27 -28 -28 -27 -28 -30 -31 -31 -30 -30 -29 -28 -27 -26
-15 -15 -15 -15 -15 -15 -15 -15 -15 -16 -16 -16 -16 -17 -18 -19 -19 -20 -20 -21 -21 -22 -23 -24 -25 -25 -26 -27 -27 -28 -28 -28 -28 -28 -28 -30 -31 -31 -30 -30 -29 -29 -28 -26
-16 -15 -16 -15 -15 -15 -16 -16 -16 -16 -16 -16 -16 -18 -19 -19 -20 -20 -21 -21 -22 -23 -24 -25 -25 -26 -27 -27 -27 -28 -28 -28 -28 -28 -28 -29 -31 -31 -31 -30 -30 -29 -29 -28
-16 -16 -15 -16 -15 -16 -16 -16 -16 -17 -17 -17 -17 -18 -19 -20 -20 -21 -21 -21 -22 -23 -24 -25 -25 -27 -27 -27 -28 -28 -28 -28 -28 -29 -29 -29 -30 -31 -31 -31 -30 -30 -29 -29
-16 -16 -16 -16 -16 -16 -16 -17 -17 -17 -17 -18 -19 -18 -20 -20 -21 -21 -22 -22 -23 -23 -25 -25 -26 -27 -27 -28 -28 -28 -28 -28 -29 -29 -29 -30 -30 -31 -31 -31 -30 -30 -30 -29
-16 -16 -16 -16 -16 -16 -16 -17 -18 -18 -18 -18 -19 -20 -20 -21 -21 -22 -22 -22 -23 -24 -25 -25 -27 -28 -28 -28 -28 -28 -28 -28 -29 -29 -30 -30 -30 -31 -31 -31 -31 -31 -30 -29
-17 -16 -16 -16 -16 -16 -16 -17 -17 -18 -18 -19 -19 -20 -21 -21 -22 -22 -22 -23 -23 -24 -25 -26 -27 -28 -28 -28 -28 -28 -28 -28 -29 -29 -30 -30 -31 -31 -31 -31 -31 -31 -30 -30
-16 -16 -17 -16 -16 -16 -16 -16 -17 -17 -19 -19 -20 -21 -22 -22 -22 -23 -23 -23 -23 -25 -25 -26 -27 -28 -28 -28 -28 -28 -28 -29 -29 -29 -29 -30 -30 -31 -31 -31 -32 -31 -31 -30
-17 -16 -17 -16 -16 -16 -16 -16 -17 -18 -19 -20 -20 -20 -21 -22 -22 -23 -23 -23 -24 -25 -25 -27 -28 -28 -28 -28 -28 -29 -29 -29 -29 -29 -29 -29 -30 -31 -31 -31 -31 -32 -31 -30
-17 -16 -17 -16 -17 -17 -16 -16 -18 -19 -20 -21 -20 -21 -21 -22 -23 -23 -23 -24 -24 -25 -25 -27 -28 -28 -28 -28 -28 -29 -29 -29 -29 -29 -29 -29 -30 -30 -31 -31 -31 -31 -31 -31
-17 -17 -17 -17 -17 -16 -16 -17 -18 -19 -20 -21 -21 -21 -22 -22 -23 -23 -23 -24 -24 -25 -26 -27 -28 -28 -28 -28 -29 -29 -29 -29 -29 -30 -30 -29 -30 -30 -30 -31 -31 -31 -31 -31
-17 -17 -17 -17 -17 -17 -16 -17 -19 -19 -20 -21 -21 -22 -22 -22 -23 -23 -24 -24 -24 -26 -26 -27 -28 -28 -28 -29 -29 -29 -29 -29 -29 -30 -29 -29 -30 -30 -30 -30 -31 -31 -31 -31
-16 -17 -18 -17 -17 -17 -17 -18 -19 -20 -19 -21 -21 -22 -22 -23 -23 -24 -24 -24 -25 -26 -26 -28 -28 -28 -29 -29 -29 -29 -29 -29 -29 -29 -29 -29 -30 -30 -31 -31 -31 -31 -31 -31
-17 -17 -17 -18 -18 -17 -18 -19 -20 -20 -21 -21 -21 -22 -22 -23 -23 -24 -25 -24 -26 -26 -26 -28 -28 -28 -29 -29 -29 -29 -29 -29 -30 -29 -29 -29 -30 -30 -31 -31 -31 -31 -31 -32
-17 -18 -17 -18 -18 -17 -19 -20 -20 -21 -21 -21 -21 -22 -22 -23 -23 -24 -25 -25 -26 -26 -26 -28 -28 -28 -29 -29 -29 -30 -29 -30 -30 -29 -29 -29 -30 -31 -31 -31 -31 -31 -32 -32
-17 -18 -18 -18 -17 -19 -20 -20 -20 -21 -21 -21 -22 -22 -23 -24 -24 -25 -25 -25 -26 -26 -26 -28 -28 -29 -29 -29 -30 -30 -30 -30 -30 -30 -29 -30 -30 -31 -31 -31 -31 -32 -33 -32
-17 -17 -17 -18 -18 -20 -20 -21 -21 -21 -21 -21 -22 -23 -23 -24 -24 -25 -25 -26 -26 -26 -27 -28 -28 -29 -29 -29 -29 -30 -30 -30 -30 -30 -30 -30 -31 -31 -31 -31 -32 -33 -33 -32
-17 -17 -17 -18 -19 -20 -21 -22 -21 -21 -22 -22 -22 -23 -24 -24 -25 -25 -25 -26 -26 -26 -27 -28 -29 -29 -29 -29 -29 -29 -30 -30 -30 -30 -30 -31 -31 -31 -32 -31 -32 -32 -32 -32
-17 -18 -19 -20 -21 -21 -21 -21 -21 -22 -22 -23 -23 -24 -24 -25 -25 -25 -25 -26 -26 -27 -28 -28 -29 -29 -29 -29 -29 -29 -30 -30 -30 -30 -30 -31 -31 -31 -32 -32 -31 -32 -32 -31
Height
5795 5796 5795 5794 5793 5792 5791 5790 5788 5786 5782 5779 5775 5773 5770 5767 5763 5758 5752 5747 5742 5737 5731 5724 5715 5706 5697 5690 5683 5675 5669 5664 5662 5657 5654 5648 5645 5643 5642 5644 5645 5646 5648 5651
5790 5790 5790 5789 5788 5787 5786 5785 5784 5781 5776 5774 5770 5767 5764 5760 5756 5750 5744 5740 5733 5727 5720 5712 5704 5696 5688 5679 5670 5663 5657 5649 5642 5637 5634 5629 5630 5629 5628 5628 5631 5633 5636 5638
5784 5784 5784 5784 5783 5782 5781 5780 5778 5776 5771 5768 5764 5761 5758 5754 5748 5742 5737 5731 5725 5718 5710 5702 5694 5685 5676 5667 5658 5647 5637 5630 5622 5616 5612 5607 5604 5607 5611 5612 5615 5618 5621 5624
5777 5778 5778 5778 5777 5776 5775 5773 5771 5768 5765 5761 5757 5754 5751 5747 5740 5733 5728 5722 5715 5707 5701 5692 5681 5672 5662 5652 5642 5633 5623 5615 5608 5600 5593 5590 5589 5587 5589 5594 5597 5602 5606 5609
5772 5771 5772 5772 5771 5770 5769 5767 5765 5761 5758 5754 5750 5746 5743 5738 5731 5725 5718 5712 5705 5700 5692 5681 5671 5660 5650 5639 5630 5621 5612 5606 5598 5589 5580 5574 5570 5571 5572 5574 5580 5586 5591 5595
5764 5765 5765 5764 5764 5763 5762 5760 5758 5754 5751 5747 5743 5738 5736 5729 5723 5716 5711 5704 5697 5690 5681 5671 5660 5648 5638 5629 5620 5611 5603 5596 5588 5578 5567 5559 5557 5557 5558 5560 5564 5569 5575 5581
5758 5758 5758 5757 5756 5756 5755 5753 5750 5747 5743 5739 5734 5730 5727 5721 5714 5709 5704 5697 5688 5681 5671 5661 5651 5640 5628 5620 5611 5602 5594 5587 5578 5567 5555 5548 5547 5546 5547 5548 5551 5555 5561 5567
5751 5753 5751 5751 5750 5749 5747 5745 5743 5737 5734 5731 5727 5724 5721 5714 5707 5702 5695 5687 5680 5672 5662 5650 5641 5631 5622 5613 5604 5595 5587 5579 5569 5558 5548 5541 5540 5539 5538 5539 5541 5544 5548 5553
5743 5743 5744 5743 5742 5741 5739 5737 5735 5730 5726 5722 5718 5716 5714 5706 5699 5694 5687 5679 5672 5662 5651 5643 5634 5623 5614 5606 5597 5587 5579 5571 5562 5552 5543 5536 5534 5532 5531 5531 5533 5535 5537 5541
5736 5734 5735 5734 5734 5734 5731 5730 5726 5721 5717 5713 5709 5706 5704 5697 5691 5686 5678 5671 5663 5653 5645 5635 5626 5615 5606 5598 5589 5579 5572 5563 5555 5546 5538 5532 5526 5525 5524 5524 5525 5526 5528 5530
5728 5727 5727 5726 5726 5724 5723 5720 5717 5712 5707 5703 5699 5698 5695 5688 5682 5678 5670 5664 5656 5647 5637 5628 5618 5607 5599 5590 5582 5573 5565 5557 5548 5539 5533 5526 5519 5517 5515 5516 5516 5518 5519 5521
5718 5717 5717 5719 5718 5716 5714 5711 5707 5701 5699 5693 5690 5690 5685 5679 5675 5669 5662 5656 5647 5638 5629 5619 5609 5600 5592 5584 5575 5566 5559 5552 5543 5535 5528 5521 5514 5509 5506 5506 5507 5508 5510 5512
5709 5708 5708 5708 5710 5708 5704 5701 5697 5693 5688 5686 5680 5682 5676 5670 5667 5660 5655 5648 5639 5629 5620 5610 5600 5592 5586 5578 5569 5562 5554 5546 5537 5529 5522 5514 5507 5502 5498 5496 5496 5498 5501 5503
5698 5697 5699 5700 5698 5697 5694 5691 5688 5684 5681 5678 5676 5671 5667 5662 5659 5652 5646 5639 5630 5620 5612 5602 5593 5587 5579 5571 5563 5555 5548 5539 5531 5522 5514 5507 5500 5495 5490 5486 5485 5487 5490 5493
5687 5686 5688 5688 5687 5685 5684 5680 5678 5675 5672 5668 5670 5663 5659 5654 5650 5643 5637 5630 5621 5612 5604 5596 5587 5580 5572 5564 5555 5548 5541 5533 5524 5516 5508 5500 5494 5488 5483 5478 5474 5475 5479 5483
5677 5676 5676 5676 5676 5676 5674 5669 5670 5667 5663 5661 5658 5657 5651 5647 5641 5635 5628 5621 5613 5604 5597 5588 5581 5574 5566 5558 5549 5542 5534 5525 5517 5509 5502 5495 5488 5481 5476 5472 5468 5464 5466 5470
5665 5664 5665 5665 5665 5663 5660 5662 5661 5657 5655 5653 5649 5649 5644 5639 5634 5628 5621 5614 5606 5597 5589 5580 5574 5567 5559 5552 5543 5535 5527 5518 5510 5503 5495 5488 5482 5475 5469 5465 5462 5459 5456 5458
5654 5654 5653 5653 5652 5648 5654 5652 5650 5648 5646 5644 5642 5639 5635 5630 5626 5620 5613 5606 5598 5590 5581 5573 5567 5560 5552 5544 5536 5528 5520 5512 5504 5495 5487 5481 5475 5469 5463 5457 5454 5451 5449 5447
5644 5644 5641 5640 5639 5641 5640 5642 5640 5636 5638 5636 5632 5629 5625 5621 5617 5610 5605 5597 5589 5581 5572 5566 5560 5552 5545 5537 5529 5521 5513 5505 5497 5488 5480 5474 5468 5461 5456 5450 5445 5442 5439 5436
5632 5631 5628 5628 5627 5626 5631 5631 5629 5626 5626 5625 5621 5619 5616 5613 5608 5601 5595 5587 5580 5573 5564 5558 5552 5546 5538 5531 5523 5515 5506 5498 5490 5481 5473 5466 5460 5454 5447 5442 5437 5431 5428 5424
5618 5616 5616 5615 5612 5617 5618 5619 5617 5616 5623 5614 5612 5609 5607 5603 5598 5592 5585 5578 5571 5564 5557 5551 5545 5538 5531 5524 5516 5509 5500 5492 5483 5474 5467 5460 5452 5445 5438 5432 5427 5421 5416 5413
5605 5603 5603 5604 5602 5603 5610 5606 5606 5607 5606 5604 5602 5599 5596 5592 5587 5582 5576 5569 5563 5556 5549 5543 5537 5530 5524 5517 5510 5503 5494 5485 5476 5467 5460 5453 5445 5437 5430 5423 5417 5410 5404 5402
5588 5591 5590 5591 5592 5596 5594 5597 5596 5597 5596 5594 5592 5589 5585 5582 5577 5573 5567 5560 5555 5548 5542 5536 5529 5523 5518 5511 5505 5497 5488 5480 5470 5461 5453 5445 5438 5430 5422 5415 5407 5398 5396 5393
5575 5577 5577 5578 5582 5584 5586 5586 5586 5585 5585 5585 5582 5579 5575 5572 5568 5563 5557 5551 5546 5540 5533 5527 5522 5517 5512 5505 5499 5492 5484 5476 5467 5457 5447 5439 5431 5423 5416 5409 5401 5393 5391 5388
5564 5563 5566 5568 5571 5575 5575 5574 5573 5575 5576 5574 5572 5568 5565 5562 5558 5554 5547 5542 5538 5532 5525 5520 5515 5511 5506 5500 5494 5486 5480 5472 5464 5455 5445 5435 5427 5419 5412 5405 5400 5393 5389 5385
5553 5554 5556 5562 5560 5560 5565 5563 5564 5565 5563 5564 5562 5558 5555 5552 5548 5543 5538 5534 5529 5523 5518 5513 5509 5504 5499 5493 5488 5481 5475 5468 5460 5452 5443 5432 5424 5416 5408 5401 5394 5391 5387 5382
Wind_Speed
24 21 21 20 20 20 22 23 24 27 29 30 34 38 39 40 42 43 44 46 46 48 50 54 57 57 57 58 59 59 58 58 58 61 59 57 52 54 50 48 47 45 43 40
24 21 21 20 20 21 22 23 25 29 30 32 36 38 40 41 43 43 43 44 47 50 53 55 58 57 58 60 63 65 66 65 64 63 65 66 60 53 55 52 49 46 44 41
24 22 21 21 21 21 21 23 26 30 31 34 36 38 40 42 43 43 43 45 48 51 54 57 58 58 58 60 64 62 59 56 55 53 50 52 59 58 50 53 51 49 45 43
24 23 22 22 20 20 21 24 28 30 31 33 36 40 40 41 43 43 44 46 49 53 57 61 60 62 62 65 61 54 50 50 49 50 48 46 47 46 46 48 48 47 47 43
24 24 23 21 20 21 23 26 29 31 32 33 37 40 39 40 43 44 45 48 50 56 59 62 61 61 64 57 50 46 47 48 49 48 47 43 43 40 36 37 40 44 44 44
25 25 23 23 24 24 27 28 32 33 34 35 39 41 38 40 43 45 46 48 54 57 60 60 62 63 61 50 48 48 49 51 50 49 50 40 37 36 28 31 32 33 40 44
27 26 26 26 27 28 29 32 35 37 38 39 41 42 38 40 45 45 46 49 53 59 61 62 60 60 53 47 49 49 49 50 51 50 52 36 36 31 23 28 31 32 35 39
30 30 29 30 30 31 32 35 36 39 41 42 43 43 39 41 45 45 48 52 57 60 61 61 57 55 47 46 48 47 48 49 49 48 52 35 32 27 28 26 25 30 35 37
33 33 32 32 33 31 33 37 38 41 43 44 45 42 38 42 46 47 50 55 58 58 58 56 57 51 47 46 47 49 47 48 46 47 49 38 33 27 32 30 26 26 30 37
33 35 33 32 33 33 37 38 39 41 45 45 48 45 40 43 47 49 52 57 58 57 56 56 54 47 45 47 50 49 46 43 44 44 45 44 32 28 31 32 33 30 29 28
32 35 35 34 34 38 40 39 41 43 45 46 48 46 41 44 48 49 54 57 56 56 53 55 51 44 46 50 49 44 40 41 43 45 44 45 37 32 32 35 32 33 34 31
33 38 39 36 37 39 40 40 42 44 45 47 45 45 42 47 48 50 55 56 57 56 52 53 46 44 47 49 45 40 40 41 45 43 45 45 42 34 34 37 37 39 37 38
32 37 39 39 40 41 43 42 43 44 47 45 45 42 44 47 49 52 56 57 60 55 52 52 44 43 48 46 42 39 40 45 47 46 45 45 43 39 33 39 42 40 40 40
34 38 40 40 42 43 44 45 45 47 47 43 43 44 44 49 51 53 56 57 60 54 52 49 42 43 47 46 42 38 42 47 48 48 47 44 40 38 36 32 42 43 42 40
37 40 41 42 45 46 45 46 48 48 46 46 41 46 45 49 51 53 56 59 60 53 51 46 40 44 46 46 41 41 44 48 49 50 44 43 41 35 33 33 31 43 44 45
42 45 45 47 48 47 45 49 49 47 45 42 43 44 47 49 51 53 56 58 56 51 51 45 39 44 46 46 42 43 45 48 48 51 41 38 41 37 31 30 28 29 44 46
46 47 46 49 49 48 50 47 44 45 43 38 44 43 48 49 50 53 56 56 55 49 50 43 39 45 46 45 43 45 47 48 47 51 44 40 39 38 33 29 27 26 30 48
45 49 51 51 50 52 48 45 43 44 40 40 41 44 46 49 50 52 55 56 53 48 49 41 40 44 46 46 44 47 48 47 48 51 45 41 39 36 35 31 30 27 24 30
47 49 51 51 52 51 49 45 42 42 40 37 40 44 46 48 51 52 53 54 52 47 47 41 40 43 48 45 44 47 47 47 50 51 43 40 39 38 36 34 32 31 28 26
47 48 50 52 54 51 46 41 41 40 41 35 40 43 46 47 48 52 50 53 47 47 46 41 40 44 47 43 45 47 48 48 52 47 43 41 40 40 38 37 36 33 31 29
50 51 54 54 53 48 43 39 40 41 34 39 40 43 44 47 49 50 49 50 45 46 46 42 41 47 44 40 45 46 48 50 51 44 42 43 42 42 40 39 38 38 31 30
52 52 51 48 48 46 35 38 38 37 37 39 42 43 45 47 49 47 48 46 44 46 47 43 43 44 37 41 43 46 48 51 50 44 43 44 44 43 41 41 38 40 28 26
47 44 43 44 43 38 39 38 38 38 38 42 42 44 45 44 46 46 48 42 43 46 47 41 42 35 37 40 42 44 47 48 50 48 45 42 44 44 41 43 42 32 20 23
42 42 44 43 40 37 36 37 37 38 42 42 42 44 42 44 44 48 41 41 43 46 45 41 37 35 39 39 41 43 43 45 50 50 46 42 44 44 41 42 40 22 17 22
36 40 42 41 38 33 33 35 41 42 39 41 42 41 41 42 44 43 39 41 43 44 42 38 36 38 39 38 41 41 41 44 47 51 49 42 41 42 39 41 36 26 21 23
37 40 39 31 32 38 37 40 41 40 41 39 40 39 40 40 43 37 37 41 43 42 39 36 37 38 37 38 41 40 39 42 44 46 49 46 39 40 40 41 39 31 24 24
Wind_Direction
279 273 274 279 285 292 300 307 306 308 313 312 311 312 315 316 315 314 311 312 312 311 312 313 313 312 311 307 302 299 297 295 291 289 285 286 284 282 278 273 267 266 265 263
274 268 272 277 285 295 303 307 306 306 312 312 311 314 315 315 315 312 312 315 316 316 315 313 314 313 309 304 299 298 299 299 294 286 280 278 275 272 272 271 268 263 260 257
268 266 270 275 287 296 302 306 307 309 311 311 315 316 313 313 313 312 315 317 318 317 315 317 316 312 309 308 309 311 309 306 304 299 289 283 275 266 257 263 262 261 256 252
260 262 267 276 286 293 302 305 310 314 315 313 314 315 314 316 312 312 315 318 321 318 320 320 317 316 317 320 317 312 315 318 316 311 305 290 279 276 261 251 256 254 252 246
255 260 267 276 283 291 299 304 310 316 317 317 314 312 315 314 311 312 316 322 320 322 324 321 319 321 324 319 318 323 324 322 321 320 313 296 286 275 268 254 245 249 247 243
254 258 266 275 282 288 296 303 309 315 317 315 312 309 315 314 314 313 318 322 324 325 325 324 324 325 325 322 324 326 326 325 325 329 328 303 279 276 270 252 245 236 237 238
254 260 267 274 280 288 297 302 307 311 315 312 311 311 314 316 312 312 321 325 325 328 327 327 327 326 323 326 325 327 328 328 330 336 337 300 285 287 257 259 254 237 227 231
256 263 269 275 283 291 296 299 304 308 311 311 311 310 313 313 309 314 322 325 329 330 330 329 328 324 323 326 325 328 328 329 333 340 343 310 289 274 253 254 255 242 230 225
258 263 269 276 283 290 296 297 301 304 307 309 309 307 312 311 310 316 322 327 331 333 330 328 326 324 326 327 328 329 328 328 333 341 343 328 301 279 262 259 250 253 238 226
262 267 269 274 281 290 292 297 301 302 305 306 307 307 312 308 311 317 323 327 334 334 329 327 326 325 327 329 329 329 327 330 333 338 341 339 303 282 261 256 257 251 251 236
267 267 270 275 283 287 293 298 298 298 302 302 304 306 309 308 310 319 323 328 335 335 329 327 327 328 329 329 329 329 331 334 336 337 336 336 326 291 268 256 261 258 253 250
268 269 273 280 284 288 293 294 293 297 302 299 300 305 304 307 312 319 322 328 333 335 329 327 328 329 330 329 329 330 335 338 338 336 331 332 329 312 276 258 255 255 256 249
269 270 276 280 286 289 290 290 292 294 298 301 294 303 303 306 314 318 322 327 333 333 328 327 330 330 328 329 329 329 331 335 338 336 331 328 327 326 308 267 254 254 253 248
269 271 277 283 286 287 289 289 291 292 298 296 298 297 303 306 312 317 320 326 334 332 327 329 329 329 329 329 328 327 330 335 336 334 332 329 325 322 322 306 261 254 249 249
267 273 278 281 283 286 291 293 292 295 294 295 296 296 298 305 311 316 318 326 333 329 326 328 328 329 329 330 330 329 330 333 335 334 332 331 328 318 320 321 299 258 253 245
265 272 277 279 283 287 289 291 294 292 292 292 292 296 297 304 309 313 318 326 331 326 326 329 327 327 329 331 329 330 330 333 334 336 330 331 335 324 314 318 321 287 256 250
266 271 275 278 281 283 285 296 292 287 291 286 292 293 298 302 308 313 317 324 329 325 326 329 325 327 329 329 330 330 331 333 332 334 330 325 328 332 319 314 316 314 276 252
270 272 275 280 279 280 293 294 287 286 285 286 291 293 297 301 307 313 317 324 329 324 327 327 323 326 329 329 330 333 332 332 333 332 329 326 326 327 331 316 308 312 298 272
271 273 278 280 280 284 289 294 286 284 284 288 290 292 295 301 308 312 318 322 326 322 329 326 324 327 329 328 330 333 334 333 332 332 329 326 328 327 322 328 317 302 306 292
269 272 274 280 281 284 288 282 282 281 287 288 289 291 295 302 308 312 317 323 322 323 329 326 324 325 328 326 330 333 334 333 333 333 330 329 329 326 325 322 320 317 298 299
272 273 277 279 277 282 282 280 281 278 290 287 292 294 299 302 307 313 316 323 318 325 328 325 325 324 325 326 331 332 335 335 334 331 330 332 329 326 324 322 321 321 304 303
271 274 277 276 277 282 285 274 277 280 287 289 293 298 299 302 308 313 317 319 318 325 327 326 326 325 326 328 331 333 336 336 335 331 328 331 333 333 329 325 324 321 303 305
271 272 272 269 272 267 268 275 281 283 285 287 295 297 299 302 308 312 320 317 318 323 325 325 330 329 329 330 333 335 339 342 342 337 333 332 333 336 335 333 331 321 306 318
270 271 268 267 268 266 269 275 279 280 283 291 293 296 298 304 307 314 318 317 316 321 324 326 331 329 328 329 332 336 340 346 348 346 341 336 335 339 338 339 341 334 322 332
269 267 267 264 266 268 267 268 272 284 288 288 295 294 298 302 307 316 318 316 316 320 322 325 326 323 326 327 330 334 337 341 343 346 348 342 338 340 338 341 344 342 329 331
272 267 261 261 249 256 265 270 280 281 285 293 292 292 297 300 310 315 315 313 315 318 318 323 325 325 326 324 328 332 334 337 340 343 348 349 341 341 341 342 338 338 338 325